User: anonymous   Login
Location: Unspecified
(0.0000°N, 0.0000°E)
Time: 07:45:34
(UTC+00:00)
Language:

STARLINK-30309 - Orbit

View from above orbital plane
View from above orbital plane
View from above satellite
View from above satellite

Ground track
Ground track

The orbit is defined by the following mean orbital elements,

1 57632U          26145.37840036 +.00000000 +00000-0 -97047-4 0 00007
2 57632  43.0048  19.5683 0003608 263.3623  96.6818 15.27612013    04
Epoch (UTC): 25 May 2026 09:04:53
Eccentricity: 0.0003608
inclination: 43.0048°
perigee height: 480 km
apogee height: 485 km
right ascension of ascending node: 19.5683°
argument of perigee: 263.3623°
revolutions per day: 15.27612013
mean anomaly at epoch: 96.6818°

The dashed part of the orbit path shows where the satellite is in the earth's shadow,  

DLR